Location: Helsinki
(60.1699°N, 24.9384°E)
Time: 20:30:20
(UTC+02:00)

Transit 4A - Pass Details

Date: 31 October 2020
Orbit: 862 x 982 km, 66.8° (Epoch: 30 November)

Event Time Altitude Azimuth Distance (km) Brightness Sun altitude
Rises 17:48:52 0° 258° (WSW) 3,652 13.3 -10.6°
Reaches altitude 10° 17:51:29 10° 262° (W) 2,719 11.9 -10.9°
Maximum altitude 17:57:45 56° 341° (NNW) 1,163 8.5 -11.7°
Enters shadow 18:03:28 13° 57° (ENE) 2,525 9.6 -12.4°
Drops below altitude 10° 18:04:06 10° 59° (ENE) 2,746 - -12.5°
Sets 18:06:45 0° 64° (ENE) 3,692 - -12.8°
